Hourly Data Report for October 24, 2014

All times are specified in Local Standard Time (LST). Add 1 hour to adjust for Daylight Saving Time where and when it is observed.

ST LEONARD CS
NEW BRUNSWICK

47°09'28.050" N
67°49'55.014" W
245.00 m
810I001
71019
WIY

Download Data

Hourly Data (October 2014)
Hourly Data Report for October 24, 2014
Temp Definition
°C
Dew Point Temp Definition
°C
Rel Hum Definition
%
Wind Dir Definition
10's deg

Wind Spd Definition
km/h
Visibility Definition
km
Stn Press Definition
kPa
Hmdx Definition


Wind Chill Definition


Weather Definition


TIME
00:00 5.1 2.7 85 4 6   98.43     LegendNANA
01:00 4.7 2.6 86 4 3   98.36     LegendNANA
02:00 4.6 2.8 88 3 3   98.28     LegendNANA
03:00 4.5 2.8 89 3 3   98.17     LegendNANA
04:00 4.4 2.7 89 2 2   98.12     LegendNANA
05:00 3.9 2.4 90 2 3   98.06     LegendNANA
06:00 3.7 2.1 89 1 3   98.04     LegendNANA
07:00 3.7 1.8 87 2 4   98.05     LegendNANA
08:00 3.7 1.9 88 1 3   98.07     LegendNANA
09:00 4.0 2.2 88 1 2   98.08     LegendNANA
10:00 4.3 2.5 88 36 2   98.01     LegendNANA
11:00 4.2 2.5 89 1 2   97.96     LegendNANA
12:00 3.9 2.3 90 2 2   97.92     LegendNANA
13:00 3.9 2.2 89 1 3   97.79     LegendNANA
14:00 3.9 2.4 90 1 3   97.77     LegendNANA
15:00 4.0 2.7 92 36 2   97.72     LegendNANA
16:00 4.3 3.1 92 34 2   97.65     LegendNANA
17:00 4.7 3.7 94 0 1   97.67     LegendNANA
18:00 4.5 4.0 96 0 1   97.63     LegendNANA
19:00 4.8 4.0 94 35 2   97.61     LegendNANA
20:00 4.8 4.0 94 34 2   97.63     LegendNANA
21:00 4.7 3.9 94 34 2   97.62     LegendNANA
22:00 4.6 3.7 94 34 1   97.58     LegendNANA
23:00 4.5 3.7 95 36 2   97.55     LegendNANA

Notes on Data Quality.

Legend

  • E = Estimated
  • M = Missing
  • NA = Not Available
  • ‡ = Partner data that is not subject to review by the National Climate Archives
Date modified: